Location: Deerlick Astronomy Village
(33.5614°N, 82.7631°W)
Time: 08:48:06
(UTC-04:00)

Tiangong 2 - Visible Passes

Search period start: 19 May 2019 00:00
Search period end: 29 May 2019 00:00
Orbit: 378 x 387 km, 42.8° (Epoch: 19 May)

Date Brightness Start Highest point End Pass type
(mag) Time Alt. Az. Time Alt. Az. Time Alt. Az.
19 May 1.9 20:53:15 10° SSW 20:56:03 31° SE 20:58:52 10° E visible
19 May 2.7 22:29:50 10° W 22:32:45 34° NNW 22:33:23 30° N visible
20 May 1.6 21:29:33 10° WSW 21:32:39 61° NNW 21:35:45 10° NE visible
20 May 4.0 23:07:31 10° WNW 23:09:23 18° NNW 23:09:23 18° NNW visible
21 May 3.4 22:06:56 10° WNW 22:09:31 23° NNW 22:12:07 10° NE visible
22 May 2.8 21:06:26 10° W 21:09:21 35° NNW 21:12:16 10° NE visible
22 May 3.9 22:44:39 10° NW 22:46:38 15° N 22:47:52 13° NNE visible
23 May 3.8 21:44:05 10° WNW 21:46:20 18° N 21:48:36 10° NE visible
23 May 4.3 23:21:46 10° NW 23:22:52 14° NNW 23:22:52 14° NNW visible
24 May 3.9 22:21:35 10° NW 22:23:30 15° N 22:25:23 10° NE visible
25 May 3.9 21:21:10 10° NW 21:23:10 16° N 21:25:09 10° NE visible
25 May 3.6 22:58:17 10° NW 23:00:17 19° N 23:00:17 19° N visible
26 May 3.8 21:58:16 10° NW 22:00:18 16° N 22:02:21 10° NE visible
26 May 4.4 23:34:36 10° NW 23:35:00 13° NW 23:35:00 13° NW visible
27 May 2.9 22:34:40 10° NW 22:37:20 25° NNE 22:37:30 25° NNE visible
28 May 3.4 21:34:44 10° NW 21:37:04 19° NNE 21:39:23 10° ENE visible
28 May 3.7 23:11:00 10° WNW 23:12:10 21° NW 23:12:10 21° NW visible
